[[{"header":{"parameterUnit":"m.s-1","parameterCategory":1,"la1":30.2991,"la2":30.254,"lo1":-89.0895,"lo2":-89.0444,"dy":0.0017,"dx":0.0017,"nx":28,"ny":28,"refTime":"2026-02-02T09:00:00:Z","depth":0,"parameterNumber":2,"parameterNumberName":"U-component_of_WINDS"},"data":[0,0,0,0,0,0,0,0,0,0,0,0,0,0,0,0,0,0,0,0,0,0,0,0,0,0,0,0,0,0,0,0,0,0,0,0,0,0,0,0,0,0,0,0,0,0,0,0,0,0,0,0,0,0,0,0,0,0,1.9487,1.9489,0,1.9654,1.9656,1.9658,1.9698,1.9697,1.9696,1.9695,1.9864,1.9869,1.9875,0,0,0,0,0,0,0,0,0,0,0,0,0,1.9199,1.9204,1.9487,1.9489,1.9491,1.9654,1.9656,1.9659,1.9698,1.9697,1.9696,1.9694,1.9862,1.9869,1.9875,0,0,0,0,0,0,0,0,0,0,0,0,0,1.9341,1.9206,1.9487,1.9531,1.9536,1.9654,1.9656,1.9659,1.9699,1.9697,1.9695,1.9694,1.986,1.9868,1.9876,1.996,0,0,1.9901,1.9905,0,0,0,0,0,0,0,0,1.9333,1.9352,1.9522,1.9528,1.9535,1.9654,1.9617,1.976,1.9699,1.9637,1.9695,1.9693,1.9795,1.9809,1.9844,1.9968,1.9976,1.9902,1.9907,1.9911,1.9913,0,0,0,0,0,0,0,1.9323,1.9345,1.9553,1.9525,1.9532,1.9541,1.956,1.9644,1.9723,1.9642,1.9646,1.9665,1.9798,1.9835,1.9848,1.9978,1.9902,1.9909,1.9914,1.9918,2.0178,2.018,0,0,0,0,0,0,1.9306,1.9336,1.9548,1.9558,1.9428,1.9548,1.9568,1.9617,1.9723,1.9737,1.9666,1.9666,1.9822,1.9838,1.9854,1.9958,1.9911,1.9918,1.9923,2.0176,2.0179,2.0181,0,0,0,0,0,0,1.93,1.9325,1.9541,1.9448,1.9476,1.9555,1.9609,1.9621,1.9659,1.9741,1.9755,1.969,1.9821,1.9842,1.9933,1.9964,1.9922,1.993,2.0174,2.0177,2.018,2.0167,0,0,0,0,0,0,1.9291,1.9322,1.9356,1.9449,1.9481,1.9619,1.9611,1.9626,1.9673,1.9675,1.9767,1.978,1.9822,1.9921,1.9942,1.9975,1.9936,2.0171,2.0175,2.0179,2.0165,2.0169,2.0173,0,0,0,0,0,1.9281,1.9346,1.9357,1.9383,1.9525,1.962,1.9639,1.9686,1.9676,1.9709,1.9762,1.9777,1.9958,1.993,1.9954,1.999,2.017,2.0174,2.0178,2.0164,2.0169,2.0173,0,0,0,0,0,0,1.9254,1.9359,1.9373,1.947,1.9536,1.9627,1.9671,1.969,1.976,1.9759,1.9814,1.9834,1.9921,1.9965,1.9932,2.0076,2.0063,2.0073,2.0044,2.005,2.0053,2.004,1.9943,0,0,0,0,0,1.9259,1.9329,1.9416,1.9493,1.9526,1.9592,1.9636,1.9666,1.9737,1.9765,1.9824,1.9891,1.9963,2.0009,2.008,2.0172,2.0192,2.0209,2.0213,2.0215,2.0222,2.0273,2.0281,2.0195,2.0195,2.0195,0,0,1.927,1.9336,1.9377,1.9489,1.9544,1.9613,1.9616,1.969,1.9741,1.9776,1.9865,1.9911,1.9989,2.0081,2.0124,2.012,2.025,2.0221,2.0223,2.0228,2.0278,2.0286,2.0293,2.0198,2.0198,2.0197,0,0,1.9327,1.9384,1.9454,1.9509,1.9592,1.9636,1.9652,1.9741,1.9773,1.9863,1.989,1.9952,2.0075,2.0129,2.0173,2.0248,2.0264,2.027,2.0289,2.0338,2.0344,2.035,2.0375,2.0384,2.0277,2.0277,2.0277,0,1.933,1.9437,1.9487,1.9559,1.9607,1.9642,1.9712,1.9763,1.9864,1.9896,1.989,2.0044,2.0099,2.0203,2.0221,2.0256,2.0275,2.0259,2.0339,2.0346,2.0353,2.0377,2.0386,2.0277,2.0277,2.0277,2.0277,0,1.9436,1.9509,1.9555,1.9653,1.9706,1.9777,1.9836,1.9884,1.9909,1.9953,2.0044,2.0112,2.0196,2.0223,2.0249,2.033,2.0325,2.0329,2.0317,2.036,2.0383,2.0393,2.0276,2.0276,2.0276,2.0276,0,0,1.9479,1.9603,1.9619,1.9663,1.9757,1.9814,1.9885,1.9968,2.0007,2.0076,2.0136,2.0239,2.0242,2.0292,2.0324,2.0367,2.0419,2.0365,2.0368,2.0371,2.051,2.0506,2.0516,2.0431,2.0433,2.0435,2.0503,0,1.9545,1.9675,1.9722,1.9828,1.9895,1.9929,1.9991,2.0055,2.0098,2.016,2.0207,2.0278,2.0279,2.0309,2.0353,2.0404,2.0448,2.04,2.0486,2.0488,2.0464,2.0529,2.0524,2.0586,2.0513,2.0515,2.0516,0,1.964,1.971,1.9822,1.9907,1.9937,1.9992,2.007,2.0131,2.0203,2.0231,2.0285,2.0314,2.0389,2.0374,2.0476,2.0442,2.048,2.051,2.0514,2.0523,2.0503,2.0537,2.0607,2.0615,2.0531,2.053,2.0529,0,1.9657,1.978,1.9863,1.99,2.0001,2.0038,2.0082,2.0152,2.0199,2.0267,2.0297,2.0374,2.0415,2.0473,2.0521,2.0506,2.0618,2.0607,2.0642,2.0641,2.0663,2.0661,2.0737,2.069,2.069,2.069,2.069,0,1.9725,1.9792,1.9872,1.9923,1.9998,2.0051,2.0124,2.017,2.0232,2.0291,2.0326,2.038,2.0442,2.0504,2.0542,2.062,2.0639,2.0662,2.0671,2.0658,2.0655,2.0683,2.0679,2.0693,2.0692,2.0691,2.0691,0,1.9757,1.9813,1.9905,1.9994,2.0017,2.0069,2.0143,2.0193,2.0238,2.0312,2.0332,2.0401,2.0476,2.0531,2.0627,2.0653,2.0735,2.0746,2.0711,2.0715,2.0746,2.0742,2.0842,2.0857,2.0801,2.0802,2.0802,0,1.9796,1.9848,1.9942,1.9984,2.0028,2.0096,2.0143,2.0197,2.0244,2.033,2.0369,2.0446,2.051,2.0628,2.0686,2.076,2.0771,2.0801,2.0782,2.0766,2.0769,2.0764,2.0769,2.0803,2.0803,2.0803,2.0804,0,1.9858,1.9883,1.995,2.0027,2.0083,2.0146,2.0209,2.0241,2.0306,2.0357,2.0434,2.0484,2.0583,2.0658,2.0738,2.0781,2.0803,2.0809,2.0821,2.0807,2.0785,2.0795,2.0716,2.0807,2.0806,2.0806,2.0806,2.0806,1.9893,1.9941,2.0014,2.0087,2.0141,2.0199,2.0249,2.03,2.0365,2.045,2.0478,2.0557,2.0626,2.0735,2.0779,2.0841,2.084,2.0857,2.0861,2.0864,2.0862,2.0776,2.0856,2.0856,2.0856,2.0856,2.0856,0,1.9956,2.0004,2.0071,2.0159,2.0216,2.0232,2.0303,2.0349,2.0419,2.0482,2.0545,2.0633,2.0706,2.0769,2.0845,2.0882,2.0894,2.09,2.0897,2.0906,2.086,2.0842,2.0889,2.0889,2.0889,2.0889,2.0889,2.0889,1.9995,2.0075,2.0109,2.0216,2.0264,2.0342,2.0381,2.0434,2.0485,2.0581,2.0642,2.0683,2.0747,2.0827,2.0894,2.0911,2.0936,2.094,2.0959,2.0914,2.091,2.0906,2.0889,2.0945,2.0945,2.1,2.1,2.1]},{"header":{"parameterUnit":"m.s-1","parameterCategory":1,"la1":30.2991,"la2":30.254,"lo1":-89.0895,"lo2":-89.0444,"dy":0.0017,"dx":0.0017,"nx":28,"ny":28,"refTime":"2026-02-02T09:00:00:Z","depth":0,"parameterNumber":3,"parameterNumberName":"V-component_of_WINDS"},"data":[0,0,0,0,0,0,0,0,0,0,0,0,0,0,0,0,0,0,0,0,0,0,0,0,0,0,0,0,0,0,0,0,0,0,0,0,0,0,0,0,0,0,0,0,0,0,0,0,0,0,0,0,0,0,0,0,0,0,4.3657,4.3657,0,4.367,4.367,4.367,4.3603,4.3601,4.3599,4.3597,4.3609,4.3611,4.3613,0,0,0,0,0,0,0,0,0,0,0,0,0,4.3572,4.3573,4.3657,4.3657,4.3657,4.367,4.367,4.367,4.3603,4.3601,4.3599,4.3596,4.3609,4.3611,4.3614,0,0,0,0,0,0,0,0,0,0,0,0,0,4.3599,4.3574,4.3657,4.3626,4.3623,4.367,4.367,4.367,4.3604,4.3601,4.3598,4.3595,4.3608,4.3611,4.3614,4.3692,0,0,4.3624,4.3625,0,0,0,0,0,0,0,0,4.3598,4.3602,4.363,4.3628,4.3625,4.3632,4.3644,4.3677,4.3605,4.3611,4.3597,4.3594,4.3619,4.3621,4.363,4.3692,4.3693,4.3624,4.3626,4.3627,4.3628,0,0,0,0,0,0,0,4.3596,4.3601,4.3662,4.363,4.3627,4.361,4.361,4.365,4.3631,4.361,4.3605,4.3608,4.3617,4.3627,4.363,4.3693,4.3624,4.3627,4.3629,4.363,4.3817,4.382,0,0,0,0,0,0,4.3598,4.36,4.3662,4.3662,4.3604,4.3614,4.3614,4.3633,4.363,4.3627,4.361,4.3605,4.3623,4.3626,4.363,4.3719,4.3627,4.363,4.3632,4.3814,4.3817,4.3821,0,0,0,0,0,0,4.3597,4.3604,4.3661,4.363,4.3636,4.3618,4.3639,4.3634,4.3644,4.3631,4.3627,4.3624,4.3621,4.3625,4.3676,4.3718,4.3632,4.3634,4.381,4.3815,4.3819,4.3899,0,0,0,0,0,0,4.3595,4.3604,4.3635,4.3631,4.3638,4.3709,4.3642,4.3637,4.365,4.3643,4.3642,4.364,4.3619,4.3672,4.3679,4.3721,4.3637,4.3806,4.3812,4.3818,4.3892,4.3906,4.3917,0,0,0,0,0,4.3592,4.3657,4.3636,4.3644,4.3675,4.3711,4.3715,4.369,4.3654,4.3683,4.3674,4.364,4.3713,4.3678,4.3686,4.3729,4.3803,4.3811,4.3817,4.3887,4.3903,4.3917,0,0,0,0,0,0,4.3666,4.3656,4.3633,4.3699,4.3706,4.37,4.3736,4.3708,4.3726,4.3718,4.3686,4.3686,4.3742,4.3741,4.3702,4.3803,4.3752,4.376,4.3802,4.3817,4.3829,4.3828,4.364,0,0,0,0,0,4.369,4.372,4.371,4.3769,4.3774,4.3755,4.3769,4.3749,4.3755,4.3758,4.3753,4.376,4.3783,4.38,4.3822,4.3892,4.389,4.3925,4.3938,4.3948,4.3956,4.399,4.4006,4.3843,4.3843,4.3843,0,0,4.3739,4.3738,4.3759,4.3784,4.3787,4.3818,4.3758,4.3794,4.3816,4.3763,4.3811,4.3807,4.3812,4.3873,4.3899,4.3873,4.4,4.3957,4.3965,4.3967,4.3999,4.4015,4.4028,4.3848,4.3847,4.3846,0,0,4.3846,4.3849,4.3897,4.3901,4.3907,4.3893,4.3905,4.3902,4.3898,4.3945,4.3905,4.3931,4.3974,4.3979,4.3987,4.4093,4.4061,4.4101,4.4165,4.4199,4.4212,4.4223,4.426,4.4273,4.4109,4.4109,4.4109,0,4.3907,4.3953,4.3926,4.3964,4.3975,4.3928,4.3976,4.3981,4.3994,4.4002,4.3973,4.4024,4.4025,4.4085,4.411,4.4119,4.413,4.4101,4.4213,4.4224,4.4233,4.4268,4.4282,4.4114,4.4113,4.4113,4.4112,0,4.4027,4.406,4.4098,4.4111,4.4126,4.4169,4.4147,4.4165,4.4144,4.4133,4.418,4.4179,4.4199,4.4212,4.4191,4.4268,4.4252,4.4218,4.4166,4.4254,4.4286,4.4299,4.412,4.4119,4.4117,4.4116,0,0,4.4182,4.4177,4.4191,4.4196,4.4197,4.4221,4.4262,4.4281,4.4297,4.4306,4.4338,4.4375,4.4343,4.4352,4.4332,4.4362,4.4444,4.4325,4.4324,4.4346,4.4527,4.4552,4.4568,4.4424,4.4426,4.4428,4.4526,0,4.4285,4.4353,4.4328,4.4398,4.4426,4.4382,4.4416,4.442,4.4411,4.4433,4.4422,4.4448,4.4406,4.4411,4.4439,4.4429,4.448,4.4421,4.4452,4.4453,4.4451,4.4584,4.4611,4.4704,4.4539,4.4541,4.4542,0,4.4415,4.4429,4.4501,4.4496,4.4507,4.4539,4.4553,4.4575,4.4578,4.4569,4.4579,4.4551,4.4589,4.4537,4.4588,4.4548,4.4559,4.4556,4.4559,4.456,4.4503,4.4588,4.4733,4.4747,4.4562,4.456,4.4559,0,4.4518,4.4555,4.4603,4.4608,4.4603,4.4626,4.4625,4.4626,4.4638,4.4651,4.4658,4.4675,4.4684,4.4698,4.4675,4.4639,4.4728,4.4675,4.4721,4.4721,4.4741,4.474,4.4888,4.475,4.475,4.475,4.4749,0,4.4635,4.4681,4.4649,4.4678,4.4727,4.4698,4.4747,4.4741,4.4741,4.4768,4.473,4.4756,4.4724,4.4747,4.4729,4.4773,4.4778,4.477,4.4765,4.4773,4.4774,4.4779,4.4772,4.4753,4.4752,4.4752,4.4751,0,4.4759,4.474,4.4788,4.478,4.4778,4.4815,4.4807,4.4833,4.482,4.4854,4.486,4.4841,4.4865,4.4843,4.4867,4.4854,4.4912,4.4898,4.4911,4.4907,4.4953,4.4949,4.511,4.5129,4.4979,4.4981,4.4982,0,4.4835,4.4869,4.4863,4.4878,4.4879,4.4904,4.4916,4.4888,4.4901,4.4907,4.4932,4.4952,4.4968,4.5008,4.4995,4.5013,4.4998,4.5053,4.5,4.5007,4.4997,4.4995,4.4998,4.5064,4.5065,4.5067,4.5068,0,4.4971,4.4959,4.4978,4.4993,4.5008,4.5019,4.5027,4.5041,4.5011,4.5029,4.5052,4.5064,4.5087,4.5108,4.5121,4.5119,4.5089,4.5085,4.5096,4.5104,4.511,4.5106,4.4939,4.5081,4.508,4.5079,4.5078,4.5078,4.5072,4.5099,4.5099,4.5121,4.5123,4.5131,4.5154,4.5144,4.5163,4.5179,4.5161,4.519,4.519,4.5205,4.5206,4.5228,4.5205,4.5221,4.5225,4.523,4.5236,4.5107,4.523,4.523,4.523,4.5229,4.5229,0,4.5205,4.5202,4.5222,4.5233,4.525,4.5219,4.5226,4.5241,4.5267,4.527,4.5285,4.5312,4.5331,4.532,4.5336,4.5356,4.5342,4.5361,4.5358,4.5358,4.5256,4.5244,4.5371,4.5371,4.5371,4.5371,4.5371,4.5371,4.5276,4.532,4.5307,4.5351,4.5348,4.5375,4.5381,4.5387,4.5389,4.542,4.5436,4.5428,4.5425,4.5441,4.5457,4.5453,4.546,4.5484,4.5475,4.538,4.5366,4.5352,4.5341,4.5486,4.5486,4.5575,4.5575,4.5576]}]]